sat.trackr.live / text

‹ back to catalog

STARLINK-32504

NORAD 62024 · 2024-213S

PAYLOAD ACTIVE UNKNOWN

§ Identity

Operator
Country
US
Launch date
2024-11-18
Launch site
AFWTR
Launch vehicle
Mass (kg)
RCS (m²)

Purposes: comms

External: N2YO · Heavens-Above · Gunter

§ Orbital elements

Epoch: 2026-09-21T16:17:45.609504Z

Period
93.85 min
Inclination
53.1600°
Eccentricity
0.0001200
Mean motion
15.34395013 rev/d
Perigee alt
461.9 km
Apogee alt
463.5 km
Semi-major
6,840.9 km
B*
5.6171e-4
RAAN
336.2226°
Arg perigee
75.2299°
Mean anomaly
284.8837°
Rev number
10,318

§ Raw data

STARLINK-325041 62024U 24213S   26264.67900011  .00018646  00000+0  56171-3 0  99972 62024  53.1600 336.2226 0001200  75.2299 284.8837 15.34395013103189

JSON: /api/v1/satellites/62024 · /tle

For live sub-satellite position, see the globe view (requires WebGL).

§ Visibility from observer

Set your observer location to see the next 7 days of passes ≥ 10°. The values pass through the URL so the page stays shareable.

No JS? Fill the form by hand. The geolocation button needs JavaScript.